Weather Roundup
Issued by NWS Corpus Christi, TX

Home | Current Version | Previous Version | Text Only | Print | Product List | Glossary On
Versions: 1 2 3 4 5 6 7 8 9 10 11 12 13 14 15 16 17 18 19 20 21 22 23 24 25 26 27 28 29 30 31 32 33 34 35 36 37 38 39 40 41 42 43 44 45 46 47 48 49 50
000
ASUS44 KCRP 270110
HRRCRP

SOUTH TEXAS REGIONAL WEATHER ROUNDUP
NATIONAL WEATHER SERVICE CORPUS CHRISTI TX
700 PM CST FRI DEC 26 2014


TXZ229>244-270200-
...CORPUS CHRISTI AREA OBSERVATIONS...

CITY           SKY/WX    TMP DP  RH WIND       PRES   REMARKS
CORPUS CHRISTI PTCLDY    68  64  87 S15       29.89R
NAS CORPUS CHR PTCLDY    67  66  97 S16       29.90R
ROCKPORT       CLEAR     67  65  93 SE10      29.91R
KINGSVILLE NAS CLEAR     68  66  93 SE8       29.88R
ALICE          CLEAR     69  63  81 SE8       29.87R
FALFURRIAS     CLEAR     71  61  70 SE8       29.87R
$$

...VICTORIA AREA OBSERVATIONS...

CITY           SKY/WX    TMP DP  RH WIND       PRES   REMARKS
VICTORIA       CLOUDY    68  66  93 SE8       29.92R
BEEVILLE       FAIR      66  65  95 SE8       29.89R
PLEASANTON     CLEAR     66  57  72 E3        29.88R
SAN ANTONIO    PTCLDY    62  57  83 E3        29.90R
$$

...LAREDO AREA OBSERVATIONS...

CITY           SKY/WX    TMP DP  RH WIND       PRES   REMARKS
LAREDO         CLEAR     66  54  63 SE3       29.88R
DEL RIO        PTCLDY    63  46  54 E6        29.85R
MCALLEN        CLEAR     70  62  76 SE12      29.88R
HEBBRONVILLE   CLEAR     67  58  71 SE6       29.88R HAZE
$$

...OTHER TEXAS OBSERVATIONS...

CITY           SKY/WX    TMP DP  RH WIND       PRES   REMARKS
BROWNSVILLE    PTCLDY    69  65  86 S13       29.90R
HOUSTON        CLOUDY    68  63  84 SE12      29.96R
COL. STATION   CLOUDY    66  64  93 SE9       29.95R
AUSTIN         PTCLDY    60  56  86 CALM      29.90R
WACO           MOCLDY    60  59  96 S6        29.92R
FORT WORTH     MOCLDY    62  59  90 SE7       29.91R
WICHITA FALLS  PTCLDY    51  45  79 N5        29.92R
LUBBOCK        CLOUDY    49  30  48 W13       29.93R
EL PASO        CLOUDY    38  34  85 S13       29.98R WCI  30
$$

...MARINE OBSERVATIONS...

STATION/POSITION TIME  SKY/WX   TEMP    WIND        PRES    VSBY  WAVE   SWELL
                                AIR SEA DIR/SP/G                  HT/PER HT/PER
                 (UTC)          (F)     (DEG/KT/KT) (MB)    (MI)  (FT/S) (FT/S)
PORT ARANSAS     0100            66 62  140/ 10/ 12 1013.1R
BUOY 90 E PORT A 0100            73 72  150/ 19/ 23 1013.9R         8/ 7
BUOY 45 SE BAFFI 0100            72 72  160/ 14/ 16 1012.6R         6/ 8   5/ 8
BUOY 200 E PT IS 0100            74 74  140/ 17/ 21 1015.3R         5/ 6
BUOY 15 E GALVES 0100            64 61  120/ 10/ 12 1015.0R         5/ 7   3/ 7
$$



USA.gov is the U.S. government's official web portal to all federal, state and local government web resources and services.